Regional Weather Roundup
Issued by NWS

Home | Current Version | Previous Version | Graphics & Text | Print | Product List | Glossary On
Versions: 1 2 3 4 5 6 7 8 9 10 11 12 13 14 15 16 17 18 19 20 21 22 23 24 25 26 27 28 29 30 31 32 33 34 35 36 37 38 39 40 41 42 43 44 45 46 47 48 49 50
000
ASUS43 KMPX 011201
RWRMN
WEATHER ROUNDUP FOR MINNESOTA
NATIONAL WEATHER SERVICE TWIN CITIES/CHANHASSEN MN
700 AM CDT SAT AUG 01 2015


NOTE: "FAIR" INDICATES FEW OR NO CLOUDS BELOW 12,000 FEET WITH NO
SIGNIFICANT WEATHER AND/OR OBSTRUCTIONS TO VISIBILITY. N/A MEANS
CURRENT SKY AND/OR WEATHER CONDITIONS ARE NOT AVAILABLE.

MNZ060>063-068>070-011300-
   Twin Cities Metro

CITY           SKY/WX    TMP DP  RH WIND       PRES   REMARKS
TWIN CITIES    PTCLDY    68  60  75 SW5       29.96S
6HR MIN TEMP:  66; 6HR MAX TEMP:  72;

ST PAUL        CLEAR     65  62  90 CALM      29.96S
CRYSTAL        CLEAR     65  59  81 CALM      29.95S
BLAINE         CLEAR     63  61  94 CALM      29.96S
LAKEVILLE      CLEAR     59  57  94 CALM      29.97R
EDEN PRAIRIE   CLEAR     65  61  87 CALM      29.96R
6HR MIN TEMP:  62; 6HR MAX TEMP:  67;

SOUTH ST PAUL  CLEAR     65  59  81 CALM      29.96R
LAKE ELMO      FAIR      59  57  94 CALM      29.97S
$$
MNZ001>005-007-008-013>017-022>024-027-028-011300-
   Northwest Minnesota

CITY           SKY/WX    TMP DP  RH WIND       PRES   REMARKS
BEMIDJI        CLEAR     56  51  84 W3        29.96F
HALLOCK        CLEAR     48  48 100 S5        29.93S
ROSEAU         CLEAR     55  50  82 SW3       29.92F
WARROAD        CLEAR     55  52  88 SW6       29.92S
THIEF RVR FALL CLEAR     54  50  87 CALM      29.95F
CROOKSTON      CLEAR     54  52  94 CALM      29.95F
FOSSTON        CLEAR     52  50  93 S5        29.97F
DETROIT LAKES  PTCLDY    59  55  88 CALM      29.99S
MOORHEAD       PTCLDY    55  54  94 E3        29.98S
PARK RAPIDS    CLEAR     54  50  86 W5        29.98S
MAHNOMEN       FAIR      54  51  89 S3        29.97S
$$
MNZ006-009>011-018-025>026-011300-
   North Central Minnesota

CITY           SKY/WX    TMP DP  RH WIND       PRES   REMARKS
BAUDETTE       CLEAR     56  51  84 W6        29.91S
FLAG ISLAND    CLEAR     63  54  72 W14       29.88S
INTL FALLS     SUNNY     55  51  86 W6        29.90S
6HR MIN TEMP:  52; 6HR MAX TEMP:  56;

WASKISH        CLEAR     64  57  77 CALM      29.94S
BIG FORK       CLEAR     54  52  94 CALM      29.94S
LONGVILLE      CLEAR     54  52  94 CALM      29.96S
GRAND RAPIDS   CLEAR     55  52  88 W3        29.95S
CRANE LAKE     SUNNY     46  46 100 CALM      29.92S
ORR            SUNNY     52  48  87 CALM      29.90S
COOK           SUNNY     52  48  87 CALM      29.93S
WALKER         FAIR      52  50  93 CALM      29.97S
$$
MNZ012-019>021-037-011300-
   Northeast Minnesota

CITY           SKY/WX    TMP DP  RH WIND       PRES   REMARKS
DULUTH         SUNNY     60  51  72 W6        29.94S
6HR MIN TEMP:  54; 6HR MAX TEMP:  61;

ELY            SUNNY     54  50  87 W3        29.92R
HIBBING        SUNNY     50  47  89 CALM      29.94S
EVELETH        SUNNY     52  50  93 CALM      29.94F
DULUTH HARBOR  SUNNY     59  54  82 SW6       29.94R
TWO HARBORS    SUNNY     59  52  77 W5        29.91S
SILVER BAY     SUNNY     59  50  72 W3        29.90S
GRAND MARAIS     N/A     63  53  70 NW7       29.86R
G MARAIS ARPRT   N/A     55  50  82 W6        29.90S
$$
MNZ029>031-032-039>041-046>048-054>057-064-011300-
   West Central Minnesota

CITY           SKY/WX    TMP DP  RH WIND       PRES   REMARKS
FERGUS FALLS   CLEAR     57  57 100 NE3       29.98S
WHEATON        CLEAR     57  55  94 CALM      29.99S
MORRIS         CLEAR     59  57  94 CALM      29.97S
ALEXANDRIA     CLEAR     58  58 100 CALM      30.00S
ELBOW LAKE     FAIR      63  62  97 CALM      29.98S
WADENA         PTCLDY    57  55  94 CALM      29.98S
GLENWOOD       CLEAR     64  59  82 CALM      29.99S
APPLETON       CLEAR     59  57  94 CALM      29.97S
BENSON         CLEAR     57  55  94 CALM      29.98S
ORTONVILLE     CLEAR     61  57  88 CALM      29.97F
MADISON        CLEAR     59  57  94 W3        29.97F
WILLMAR        FAIR      59  57  94 CALM      29.99S
$$
MNZ033>034-036-042>043-049>051-058-059-011300-
   Central Minnesota

CITY           SKY/WX    TMP DP  RH WIND       PRES   REMARKS
ST CLOUD       CLEAR     60  58  92 CALM      29.97S
6HR MIN TEMP:  55; 6HR MAX TEMP:  64;

SAUK CENTRE    FAIR      57  55  95 CALM      29.99S
PAYNESVILLE    CLEAR     54  55 100 SW5       29.99S
AITKIN         CLEAR     55  50  82 W3        29.95S
PINE RIVER     CLEAR     52  50  93 CALM      30.00S
BRAINERD       CLEAR     55  54  96 CALM      29.98R
STAPLES        CLEAR     55  54  94 CALM      29.98S
LONG PRAIRIE   FAIR      57  57 100 CALM      29.99R
LITTLE FALLS   CLEAR     54  52  94 CALM      29.97S
LITCHFIELD     CLEAR     63  63 100 CALM      29.98S
BUFFALO        CLEAR     61  57  86 CALM      29.98S
MAPLE LAKE     CLEAR     59  59 100 CALM      29.98S
$$
MNZ037-044-045-052-053-011300-
   East Central Minnesota

CITY           SKY/WX    TMP DP  RH WIND       PRES   REMARKS
PRINCETON      CLEAR     57  57 100 CALM      29.97S
MORA           CLEAR     54  52  94 CALM      29.98R
CAMBRIDGE      CLEAR     63  54  72 CALM      29.95S
RUSH CITY      PTCLDY    56  55  96 CALM      29.96S
MOOSE LAKE     SUNNY     52  50  93 CALM      29.95R
HINCKLEY       FAIR      54  54 100 CALM      29.96S
CLOQUET        SUNNY     57  50  77 W6        29.95S
MCGREGOR       CLEAR     50  48  93 CALM      29.97R
$$
MNZ071>073-080-081-089-090-097-098-011300-
   Southwest Minnesota

CITY           SKY/WX    TMP DP  RH WIND       PRES   REMARKS
MONTEVIDEO     CLEAR     63  57  82 CALM      29.99F
GRANITE FALLS  CLEAR     57  56  97 SW3       30.00S
CANBY          CLEAR     61  58  91 CALM      30.00S
MARSHALL       CLEAR     63  57  82 W7        30.00F
REDWOOD FALLS  CLEAR     62  59  90 W6        29.97F
OLIVIA         CLEAR     57  54  88 CALM      29.98S
PIPESTONE      CLEAR     63  61  94 CALM      30.03R
WINDOM         CLEAR     63  59  88 CALM      30.01S
WORTHINGTON    CLEAR     63  57  82 W3        30.03R
JACKSON        CLEAR     63  61  94 W3        30.02R
TRACY          CLEAR     64  63  94 CALM      30.01S
SLAYTON        CLEAR     63  62  96 CALM      30.03R
$$
MNZ065>067-074>077-082>085-091>093-011300-
   South Central Minnesota

CITY           SKY/WX    TMP DP  RH WIND       PRES   REMARKS
MANKATO        CLEAR     63  57  82 W8        29.98S
NEW ULM        CLEAR     59  57  94 W6        29.98S
ST JAMES       CLEAR     64  63  94 W6        30.00S
FAIRMONT       CLEAR     64  55  72 W5        30.00R
GLENCOE        CLEAR     62  60  93 CALM      29.97S
FARIBAULT      CLEAR     63  59  88 CALM      29.98R
OWATONNA       CLEAR     63  57  82 SW5       29.98S
WASECA         CLEAR     57  55  94 SW3       30.00S
ALBERT LEA     CLEAR     66  59  77 W5        29.99S
$$
MNZ078>079-086>088-094>096-011300-
   Southeast Minnesota

CITY           SKY/WX    TMP DP  RH WIND       PRES   REMARKS
ROCHESTER      CLEAR     61  58  90 S5        29.99F
6HR MIN TEMP:  58; 6HR MAX TEMP:  65;

RED WING       CLEAR     61  59  94 CALM      29.95F
STANTON        CLEAR     60  57  91 CALM      29.96R
DODGE CENTER   CLEAR     61  57  88 W6        29.98S
WINONA         PTSUNNY   64  61  88 CALM      29.97S
AUSTIN         CLEAR     61  57  88 CALM      29.99S
PRESTON        PTCLDY    61  56  84 S3        30.00S
$$
ABBREVIATIONS USED IN REMARKS
   TC - TEMPERATURES IN CELSIUS
  WCI - WIND CHILL INDEX
   HX - HEAT INDEX
  VSB - VISIBILITY
$$



USA.gov is the U.S. government's official web portal to all federal, state and local government web resources and services.